When you browse on this site, cookies collect data to enhance your experience and personalize the content and advertising you see.
Visit our Privacy Policy to learn more. By continuing to use the site, you agree to this use of cookies and data.
  • In Austria
  • List of Countries
  • For 7 days
  • Water Temperature
  • Satellite Maps
  • Weather Map
  • News
  • Weather Widgets
  • user-avatar
    Login

    Hourly Weather Mauritius

    Today, 19 February, Tuesday

    Time Temperature Precipitation Wind Pressure Humidity
    00:00 +26°C° 0 mm 3 mps 722 mmHg 86%
    01:00 +26°C° 0 mm 3 mps 722 mmHg 87%
    02:00 +26°C° 0 mm 3 mps 722 mmHg 87%
    03:00 +26°C° 0 mm 3 mps 722 mmHg 87%
    04:00 +26°C° 0 mm 3 mps 722 mmHg 87%
    05:00 +26°C° 0.1 mm 3 mps 722 mmHg 87%
    06:00 +26°C° 0.1 mm 4 mps 722 mmHg 87%
    07:00 +26°C° 0.1 mm 4 mps 722 mmHg 87%
    08:00 +27°C° 0.8 mm 4 mps 722 mmHg 83%
    09:00 +28°C° 0.8 mm 4 mps 722 mmHg 80%
    10:00 +29°C° 0 mm 4 mps 723 mmHg 76%
    11:00 +29°C° 1.9 mm 4 mps 723 mmHg 76%
    12:00 +29°C° 1.9 mm 4 mps 723 mmHg 76%
    13:00 +29°C° 1.9 mm 4 mps 723 mmHg 76%
    14:00 +29°C° 1 mm 4 mps 723 mmHg 75%
    15:00 +29°C° 1 mm 4 mps 722 mmHg 75%
    16:00 +29°C° 1 mm 4 mps 722 mmHg 75%
    17:00 +28°C° 0 mm 4 mps 722 mmHg 78%
    18:00 +28°C° 0 mm 4 mps 722 mmHg 81%
    19:00 +27°C° 0 mm 4 mps 722 mmHg 85%
    20:00 +27°C° 0 mm 4 mps 722 mmHg 85%
    21:00 +27°C° 0 mm 4 mps 723 mmHg 86%
    22:00 +27°C° 0 mm 4 mps 723 mmHg 87%
    23:00 +27°C° 0 mm 4 mps 723 mmHg 87%

    Tomorrow, 20 February, Wednesday

    Time Temperature Precipitation Wind Pressure Humidity
    00:00 +27°C° 0 mm 4 mps 723 mmHg 87%
    01:00 +26°C° 0 mm 4 mps 723 mmHg 88%
    02:00 +26°C° 0.1 mm 4 mps 723 mmHg 88%
    03:00 +26°C° 0.1 mm 4 mps 723 mmHg 88%
    04:00 +26°C° 0.1 mm 4 mps 723 mmHg 88%
    05:00 +26°C° 0 mm 4 mps 723 mmHg 88%
    06:00 +26°C° 0 mm 4 mps 723 mmHg 87%
    07:00 +27°C° 0 mm 4 mps 723 mmHg 87%
    08:00 +27°C° 0 mm 4 mps 724 mmHg 83%
    09:00 +28°C° 0 mm 5 mps 724 mmHg 78%
    10:00 +29°C° 0 mm 5 mps 724 mmHg 74%
    11:00 +30°C° 0.2 mm 5 mps 724 mmHg 72%
    12:00 +30°C° 0.2 mm 5 mps 724 mmHg 70%
    13:00 +32°C° 0.2 mm 5 mps 724 mmHg 68%
    14:00 +30°C° 0.5 mm 5 mps 723 mmHg 70%
    15:00 +30°C° 0.5 mm 5 mps 723 mmHg 72%
    16:00 +29°C° 0.5 mm 5 mps 723 mmHg 74%
    17:00 +29°C° 0.5 mm 4 mps 723 mmHg 77%
    18:00 +28°C° 0.5 mm 4 mps 723 mmHg 81%
    19:00 +27°C° 0.5 mm 3 mps 723 mmHg 84%
    20:00 +27°C° 0.1 mm 3 mps 724 mmHg 85%
    21:00 +27°C° 0.1 mm 3 mps 724 mmHg 86%
    22:00 +27°C° 0.1 mm 4 mps 725 mmHg 87%
    23:00 +27°C° 0 mm 3 mps 725 mmHg 88%

    Day after tomorrow, 21 February, Thursday

    Time Temperature Precipitation Wind Pressure Humidity
    00:00 +27°C° 0 mm 3 mps 724 mmHg 88%
    01:00 +26°C° 0 mm 3 mps 724 mmHg 88%
    02:00 +26°C° 0 mm 3 mps 724 mmHg 89%
    03:00 +26°C° 0 mm 3 mps 723 mmHg 89%
    04:00 +26°C° 0 mm 3 mps 723 mmHg 89%
    05:00 +26°C° 0 mm 3 mps 723 mmHg 89%
    06:00 +26°C° 0 mm 3 mps 723 mmHg 88%
    07:00 +27°C° 0 mm 3 mps 723 mmHg 88%
    08:00 +27°C° 0.1 mm 3 mps 724 mmHg 84%
    09:00 +28°C° 0.1 mm 4 mps 724 mmHg 80%
    10:00 +29°C° 0.1 mm 4 mps 724 mmHg 76%
    11:00 +29°C° 0.4 mm 5 mps 724 mmHg 75%
    12:00 +30°C° 0.4 mm 5 mps 724 mmHg 74%
    13:00 +30°C° 0.4 mm 5 mps 723 mmHg 72%
    14:00 +30°C° 0.8 mm 5 mps 723 mmHg 73%
    15:00 +29°C° 0.8 mm 4 mps 722 mmHg 74%
    16:00 +29°C° 0.8 mm 4 mps 722 mmHg 75%
    17:00 +28°C° 0.3 mm 4 mps 722 mmHg 77%
    18:00 +28°C° 0.3 mm 3 mps 722 mmHg 80%
    19:00 +27°C° 0.3 mm 3 mps 723 mmHg 83%
    20:00 +27°C° 0.6 mm 3 mps 723 mmHg 84%
    21:00 +27°C° 0.6 mm 3 mps 723 mmHg 85%
    22:00 +26°C° 0.6 mm 3 mps 724 mmHg 86%
    23:00 +26°C° 0 mm 3 mps 723 mmHg 86%

    22 February, Friday

    Time Temperature Precipitation Wind Pressure Humidity
    00:00 +26°C° 0 mm 3 mps 723 mmHg 86%
    01:00 +26°C° 0 mm 3 mps 722 mmHg 87%
    02:00 +26°C° 0 mm 3 mps 722 mmHg 87%
    03:00 +26°C° 0 mm 3 mps 722 mmHg 87%
    04:00 +26°C° 0 mm 3 mps 721 mmHg 87%
    05:00 +26°C° 0 mm 3 mps 722 mmHg 86%
    06:00 +26°C° 0 mm 3 mps 722 mmHg 86%
    07:00 +26°C° 0 mm 3 mps 722 mmHg 85%
    08:00 +27°C° 0.2 mm 3 mps 722 mmHg 81%
    09:00 +28°C° 0.2 mm 4 mps 723 mmHg 77%
    10:00 +29°C° 0.2 mm 4 mps 723 mmHg 73%
    11:00 +29°C° 0.3 mm 4 mps 723 mmHg 72%
    12:00 +30°C° 0.3 mm 5 mps 722 mmHg 71%
    13:00 +30°C° 0.3 mm 5 mps 722 mmHg 70%
    14:00 +29°C° 1.4 mm 5 mps 721 mmHg 73%
    15:00 +29°C° 1.4 mm 4 mps 721 mmHg 75%
    16:00 +28°C° 1.4 mm 4 mps 720 mmHg 77%
    17:00 +27°C° 0.6 mm 4 mps 721 mmHg 80%
    18:00 +27°C° 0.6 mm 3 mps 721 mmHg 82%
    19:00 +26°C° 0.6 mm 3 mps 721 mmHg 85%
    20:00 +26°C° 0 mm 3 mps 721 mmHg 85%
    21:00 +26°C° 0 mm 3 mps 722 mmHg 85%
    22:00 +26°C° 0 mm 3 mps 722 mmHg 85%
    23:00 +26°C° 0.1 mm 3 mps 721 mmHg 85%

    23 February, Saturday

    Time Temperature Precipitation Wind Pressure Humidity
    00:00 +26°C° 0.1 mm 3 mps 721 mmHg 85%
    01:00 +26°C° 0.1 mm 3 mps 720 mmHg 85%
    02:00 +26°C° 0.3 mm 3 mps 720 mmHg 86%
    03:00 +26°C° 0.3 mm 3 mps 719 mmHg 86%
    04:00 +26°C° 0.3 mm 3 mps 719 mmHg 86%
    05:00 +26°C° 0.4 mm 3 mps 719 mmHg 86%
    06:00 +26°C° 0.4 mm 3 mps 720 mmHg 86%
    07:00 +26°C° 0.4 mm 4 mps 720 mmHg 85%
    08:00 +27°C° 0.5 mm 4 mps 721 mmHg 83%
    09:00 +27°C° 0.5 mm 5 mps 721 mmHg 80%
    10:00 +28°C° 0.5 mm 5 mps 721 mmHg 77%
    11:00 +27°C° 2.1 mm 5 mps 721 mmHg 79%
    12:00 +27°C° 2.1 mm 5 mps 720 mmHg 80%
    13:00 +27°C° 2.1 mm 5 mps 720 mmHg 81%
    14:00 +26°C° 1.9 mm 4 mps 720 mmHg 83%
    15:00 +26°C° 1.9 mm 4 mps 720 mmHg 84%
    16:00 +25°C° 1.9 mm 3 mps 719 mmHg 86%
    17:00 +25°C° 1 mm 3 mps 720 mmHg 86%
    18:00 +25°C° 1 mm 3 mps 720 mmHg 87%
    19:00 +25°C° 1 mm 2 mps 720 mmHg 87%
    20:00 +25°C° 0.3 mm 2 mps 721 mmHg 87%
    21:00 +25°C° 0.3 mm 2 mps 721 mmHg 87%
    22:00 +25°C° 0.3 mm 2 mps 721 mmHg 86%
    23:00 +25°C° 0 mm 2 mps 721 mmHg 87%

    24 February, Sunday

    Time Temperature Precipitation Wind Pressure Humidity
    00:00 +25°C° 0 mm 2 mps 721 mmHg 87%
    01:00 +25°C° 0 mm 3 mps 720 mmHg 87%
    02:00 +25°C° 0.2 mm 3 mps 720 mmHg 87%
    03:00 +25°C° 0.2 mm 3 mps 720 mmHg 87%
    04:00 +25°C° 0.2 mm 3 mps 719 mmHg 87%
    05:00 +25°C° 0.3 mm 3 mps 720 mmHg 86%
    06:00 +25°C° 0.3 mm 3 mps 720 mmHg 85%
    07:00 +25°C° 0.3 mm 3 mps 720 mmHg 84%
    08:00 +26°C° 0.7 mm 3 mps 721 mmHg 81%
    09:00 +27°C° 0.7 mm 3 mps 721 mmHg 77%
    10:00 +28°C° 0.7 mm 4 mps 721 mmHg 74%
    11:00 +29°C° 0.6 mm 4 mps 721 mmHg 71%
    12:00 +29°C° 0.6 mm 4 mps 721 mmHg 69%
    13:00 +29°C° 0.6 mm 4 mps 720 mmHg 66%
    14:00 +29°C° 0.6 mm 4 mps 720 mmHg 66%
    15:00 +29°C° 0.6 mm 4 mps 720 mmHg 67%
    16:00 +29°C° 0.6 mm 4 mps 720 mmHg 67%
    17:00 +28°C° 0.8 mm 3 mps 720 mmHg 71%
    18:00 +27°C° 0.8 mm 3 mps 720 mmHg 75%
    19:00 +26°C° 0.8 mm 2 mps 721 mmHg 79%
    20:00 +26°C° 0.8 mm 2 mps 721 mmHg 79%
    21:00 +26°C° 0.8 mm 2 mps 721 mmHg 80%
    22:00 +26°C° 0.8 mm 2 mps 722 mmHg 80%
    23:00 +26°C° 0.5 mm 2 mps 721 mmHg 81%
    Show more